Vorticity
6 5 5 5 4 2 3 4 4 5 5 5 6 6 7 6 5 5 6 7 8 6 7 7 6 5 5 8 8 7 8 9 9 10 10 10 10 9 9 6 5 5 5 4
6 6 4 3 3 3 3 2 4 6 6 7 8 7 7 6 6 6 7 8 8 7 6 5 5 5 4 5 10 11 11 11 12 12 13 15 16 16 16 15 15 14 13 10
5 6 7 6 6 5 5 6 7 8 7 9 6 6 6 6 7 7 8 8 7 7 5 5 5 5 3 3 -1 4 5 9 11 12 12 9 4 4 4 5 8 12 13 13
5 8 6 7 7 8 7 8 8 8 7 9 2 8 5 8 7 8 7 8 7 6 6 5 5 4 3 3 4 0 0 1 2 1 0 2 1 3 8 1 -0 3 8 14
7 8 6 7 8 8 8 7 7 8 7 7 5 8 10 5 8 8 7 7 6 5 5 6 6 4 2 3 3 3 2 2 2 2 2 2 1 2 -3 4 5 6 6 8
6 8 7 8 7 7 7 7 7 7 8 5 7 9 9 7 10 7 7 7 6 4 5 6 5 4 3 3 4 4 2 2 2 2 3 2 2 1 1 -1 1 0 2 -3
8 7 8 8 7 6 7 7 8 5 6 6 7 9 11 13 8 7 8 6 6 4 4 5 5 4 3 3 3 3 2 1 1 2 2 2 3 3 4 3 2 -0 0 3
11 8 6 7 5 6 7 7 8 8 8 6 6 10 14 7 8 8 8 7 6 4 5 4 3 5 5 4 4 2 2 1 1 1 2 2 1 2 3 1 1 3 1 3
10 10 7 7 6 7 9 7 9 5 6 3 7 10 7 6 10 8 8 7 7 3 3 5 5 3 5 6 5 4 2 1 1 1 1 2 3 2 2 3 2 2 3 5
11 6 9 7 6 6 8 8 6 1 7 8 6 10 8 9 10 9 6 6 6 6 4 3 6 6 5 5 5 5 4 3 2 1 1 2 2 3 3 1 2 3 2 4
10 4 6 9 7 7 9 8 8 7 6 6 8 7 5 11 10 13 5 3 8 8 8 8 9 6 6 5 5 4 4 3 3 3 2 3 3 3 4 3 3 3 2 3
6 8 4 8 10 7 8 8 5 7 6 4 6 11 4 9 11 7 5 5 5 6 8 8 9 9 8 7 6 6 5 6 6 6 5 5 5 4 5 4 3 3 3 2
10 7 8 7 11 10 13 5 9 6 1 4 6 2 9 6 7 6 4 3 4 4 6 8 9 9 9 7 8 8 8 8 9 8 8 8 7 6 6 5 3 4 3 4
11 7 8 8 12 7 6 11 5 3 1 5 7 5 4 5 7 5 4 3 2 2 3 3 6 7 7 6 6 7 6 8 8 7 8 8 8 6 6 5 4 4 3 4
14 10 9 6 9 12 4 14 4 1 12 7 5 7 5 5 5 4 4 5 6 7 4 3 1 4 6 5 5 5 6 7 5 7 10 7 7 5 5 5 4 5 3 5
8 13 10 9 9 10 7 9 2 3 2 12 1 2 7 8 8 7 6 4 3 5 3 4 1 1 2 5 4 4 5 7 6 8 5 6 6 6 6 5 5 5 3 5
7 9 9 10 9 8 16 5 6 9 7 9 12 5 7 7 7 6 7 6 6 7 9 11 5 7 4 5 1 3 4 5 6 5 4 7 5 6 5 5 5 4 4 6
4 5 7 7 7 10 2 6 6 3 3 4 8 5 9 7 8 3 5 7 8 9 10 7 5 6 4 2 3 5 3 3 4 4 4 6 6 5 6 5 5 4 6 5
3 6 3 4 8 2 14 10 7 6 8 5 3 6 11 11 3 4 6 8 4 5 9 9 5 6 4 4 3 7 6 3 5 4 4 4 5 7 4 6 3 5 7 4
5 4 2 6 4 7 7 8 6 -1 7 15 11 8 6 5 5 10 6 4 7 7 7 7 7 6 6 9 5 6 5 2 6 3 1 6 7 4 6 3 4 7 7 4
4 7 -3 6 -4 5 4 3 8 3 9 19 15 12 9 10 12 6 7 8 8 7 6 6 7 8 9 4 4 9 0 5 2 2 5 5 3 5 5 3 6 8 4 4
9 5 2 8 1 3 1 6 7 2 6 5 8 2 2 7 16 15 11 9 8 7 8 9 9 10 9 8 8 11 8 7 5 5 4 5 4 8 4 5 7 7 3 5
-0 -1 7 5 1 1 -6 8 5 8 13 3 3 -2 3 3 8 11 8 7 4 5 6 7 9 10 10 9 8 10 4 4 7 5 5 3 7 5 3 6 8 5 3 5
4 15 8 8 2 -2 2 6 4 3 3 1 1 2 10 11 9 9 5 4 4 3 4 5 8 10 8 8 6 8 8 6 4 5 5 7 6 3 4 7 6 4 4 6
-1 12 11 12 4 3 1 5 5 3 1 0 4 3 5 4 7 8 8 7 8 7 5 6 6 5 6 8 9 9 4 5 6 6 6 5 4 5 6 6 6 4 6 6
5 -6 1 6 7 6 7 4 3 5 6 6 6 6 5 7 7 3 3 4 3 3 6 8 7 7 6 5 4 3 5 9 7 5 6 6 5 5 6 5 4 7 7 4
Height
5873 5873 5875 5876 5878 5879 5881 5882 5884 5886 5888 5890 5892 5895 5897 5899 5901 5904 5906 5907 5908 5910 5911 5912 5912 5913 5913 5913 5913 5913 5912 5911 5910 5910 5909 5908 5907 5906 5905 5904 5902 5900 5898 5895
5873 5874 5875 5876 5878 5880 5881 5882 5884 5887 5888 5890 5892 5894 5896 5899 5901 5903 5905 5906 5908 5909 5911 5912 5912 5913 5914 5914 5914 5913 5913 5912 5911 5910 5910 5909 5908 5907 5905 5903 5901 5898 5896 5892
5871 5874 5874 5876 5877 5879 5880 5882 5884 5886 5887 5889 5891 5894 5896 5898 5900 5902 5904 5906 5907 5909 5910 5911 5913 5914 5914 5915 5915 5915 5914 5913 5912 5911 5910 5909 5908 5907 5906 5903 5901 5897 5894 5890
5868 5872 5872 5874 5875 5878 5879 5880 5882 5884 5886 5889 5890 5893 5895 5897 5899 5901 5903 5905 5907 5909 5910 5911 5913 5913 5914 5914 5915 5914 5914 5913 5912 5912 5911 5909 5908 5906 5904 5902 5899 5895 5892 5888
5865 5869 5870 5872 5874 5876 5879 5879 5881 5883 5885 5887 5889 5892 5894 5896 5898 5900 5902 5904 5906 5908 5909 5911 5912 5913 5913 5914 5914 5914 5913 5913 5912 5912 5910 5909 5907 5905 5902 5900 5897 5893 5889 5885
5861 5864 5867 5870 5871 5873 5875 5878 5879 5881 5883 5886 5887 5890 5892 5894 5896 5898 5901 5903 5905 5906 5908 5909 5911 5912 5912 5913 5913 5913 5912 5912 5911 5910 5909 5907 5905 5902 5900 5897 5893 5890 5886 5882
5857 5860 5863 5866 5869 5871 5873 5875 5877 5879 5881 5884 5885 5887 5890 5893 5895 5897 5899 5901 5903 5904 5906 5908 5909 5910 5911 5911 5911 5911 5911 5910 5909 5908 5906 5905 5902 5900 5897 5894 5891 5888 5883 5879
5854 5857 5858 5862 5865 5868 5869 5872 5874 5876 5878 5880 5882 5886 5889 5891 5893 5895 5897 5899 5901 5903 5904 5906 5907 5908 5909 5909 5909 5909 5909 5907 5906 5905 5904 5902 5899 5897 5894 5891 5887 5883 5879 5874
5848 5849 5855 5857 5860 5862 5866 5868 5870 5873 5873 5875 5880 5884 5887 5889 5890 5893 5895 5897 5899 5900 5902 5903 5904 5905 5906 5906 5906 5906 5905 5905 5904 5902 5900 5898 5896 5893 5890 5887 5883 5879 5875 5870
5841 5845 5849 5852 5854 5857 5860 5865 5866 5867 5870 5872 5877 5880 5884 5886 5887 5889 5892 5894 5896 5897 5899 5900 5901 5901 5902 5902 5902 5902 5901 5901 5900 5899 5897 5895 5892 5889 5886 5883 5879 5875 5871 5866
5836 5839 5844 5847 5849 5852 5856 5858 5860 5863 5865 5869 5872 5876 5880 5882 5884 5886 5887 5890 5892 5893 5894 5896 5896 5897 5897 5897 5898 5897 5897 5896 5895 5894 5892 5890 5887 5884 5881 5877 5874 5870 5865 5860
5830 5830 5835 5840 5842 5843 5847 5852 5853 5854 5860 5863 5867 5873 5875 5878 5880 5882 5884 5886 5887 5888 5889 5890 5891 5891 5891 5891 5892 5891 5891 5890 5889 5887 5886 5883 5881 5878 5875 5872 5868 5864 5859 5854
5822 5825 5828 5831 5836 5838 5840 5845 5848 5850 5852 5857 5860 5870 5869 5872 5875 5877 5879 5880 5882 5883 5884 5885 5886 5886 5886 5885 5885 5885 5884 5882 5882 5880 5878 5876 5873 5871 5868 5865 5861 5857 5852 5847
5811 5815 5821 5824 5826 5829 5832 5836 5840 5842 5844 5853 5854 5862 5864 5867 5869 5871 5873 5875 5876 5878 5879 5880 5880 5880 5879 5879 5879 5878 5877 5875 5874 5873 5871 5869 5866 5863 5860 5857 5853 5849 5844 5839
5803 5808 5810 5815 5816 5819 5824 5829 5832 5833 5839 5842 5853 5851 5858 5861 5861 5864 5867 5868 5870 5872 5873 5874 5873 5873 5873 5873 5871 5871 5870 5868 5867 5865 5864 5861 5858 5854 5851 5848 5845 5840 5836 5830
5795 5799 5800 5805 5808 5809 5814 5818 5822 5824 5831 5832 5841 5845 5854 5854 5854 5858 5858 5859 5860 5863 5866 5866 5866 5866 5866 5865 5864 5863 5863 5861 5859 5857 5856 5854 5850 5846 5843 5840 5836 5832 5827 5821
5785 5789 5792 5794 5798 5799 5801 5814 5814 5818 5824 5827 5833 5844 5846 5844 5845 5848 5849 5848 5851 5856 5857 5857 5857 5858 5856 5856 5854 5855 5854 5853 5851 5849 5847 5844 5841 5837 5834 5831 5827 5822 5817 5812
5775 5777 5781 5781 5786 5787 5799 5800 5806 5809 5815 5819 5823 5830 5836 5836 5836 5837 5838 5840 5844 5847 5847 5847 5848 5848 5847 5845 5847 5846 5845 5844 5842 5840 5837 5834 5831 5828 5824 5821 5817 5812 5807 5801
5761 5764 5767 5767 5774 5783 5780 5791 5797 5800 5807 5810 5813 5818 5824 5825 5825 5828 5830 5831 5831 5833 5837 5837 5837 5838 5837 5837 5837 5837 5836 5834 5833 5831 5827 5824 5821 5818 5814 5810 5805 5800 5795 5790
5747 5749 5752 5756 5761 5766 5774 5781 5782 5789 5794 5802 5801 5806 5810 5811 5815 5824 5814 5818 5819 5820 5823 5826 5827 5827 5827 5828 5825 5825 5825 5824 5823 5820 5816 5813 5810 5806 5802 5798 5794 5789 5784 5778
5731 5734 5735 5744 5743 5754 5762 5767 5774 5778 5788 5788 5791 5792 5795 5799 5804 5805 5804 5807 5808 5808 5809 5812 5813 5815 5816 5816 5814 5813 5813 5812 5811 5808 5805 5802 5798 5794 5791 5787 5781 5776 5771 5765
5710 5716 5721 5727 5730 5734 5753 5756 5762 5768 5770 5775 5777 5780 5783 5786 5790 5792 5792 5793 5795 5797 5798 5798 5799 5800 5801 5802 5803 5803 5802 5801 5799 5797 5793 5789 5786 5782 5777 5773 5768 5762 5757 5752
5681 5696 5704 5708 5717 5732 5732 5737 5740 5748 5753 5759 5764 5765 5769 5773 5776 5779 5780 5781 5782 5783 5784 5785 5786 5788 5788 5788 5788 5789 5790 5788 5786 5783 5779 5776 5772 5768 5763 5759 5754 5749 5744 5737
5668 5672 5676 5687 5704 5712 5719 5719 5721 5725 5734 5741 5746 5752 5754 5757 5760 5763 5765 5766 5768 5769 5770 5771 5772 5774 5775 5775 5775 5775 5775 5774 5770 5768 5766 5762 5758 5753 5749 5745 5740 5734 5728 5722
5640 5653 5656 5659 5678 5690 5698 5702 5703 5707 5711 5720 5728 5733 5738 5742 5744 5745 5748 5749 5752 5754 5755 5756 5758 5759 5761 5761 5762 5762 5760 5757 5756 5754 5751 5746 5742 5738 5734 5730 5725 5719 5713 5706
5619 5627 5632 5645 5659 5660 5673 5682 5685 5687 5695 5700 5707 5715 5719 5724 5728 5730 5733 5733 5736 5738 5740 5742 5744 5745 5746 5745 5745 5745 5742 5741 5739 5737 5734 5730 5726 5723 5719 5714 5710 5703 5696 5691